10 Barrel Brewing HDO: Time Trial

Bend, OR
June 9, 2018

Part of the 10 Barrel Brewing HDO

For results questions, please contact Terri Camp

Updated June 10, 2018 at 11:08 AM

Junior

Num Name Team Home Town Mph Age Time
1 8008 Ian Brown Bend Endurance Academy Bend 24.621143875474875 13 23:09.05
2 8079 Jacob Olander Bend Endurance Academy Bend 23.778401912436475 15 23:58.28
3 8064 Ian Shreve Hutch's Eugene eugene 21.89696893814697 15 26:01.86
4 8076 Zane Strait Bend Endurance Academy Bend 21.659826662728 12 26:18.96
5 8101 Bjorn Blankenship Bend 18.987341722536343 10 30:01.20

Masters Men 40+ 3/4/5

Num Name Team Home Town Mph Age Time
1 333 Michael Moody Team Cycle Sport Jacksonville 28.03945186083527 48 20:19.71
2 611 Dan Litwora Therapeutic Associates Racing p/b Pacific Office Forest Grove 27.365691915832436 43 20:49.74
3 541 Rob Angelo Evolution Racing Team/Project Bike Bend 26.976501903537955 44 21:07.77
4 697 Richie Frahm Spokane Valley 26.570948961224506 41 21:27.12
5 516 Rich Julyan Team Cycle Sport Medford 26.326323118441234 48 21:39.08
6 346 Max Lawson Flywheel Bicycle Solutions Ashland 26.162590426916402 49 21:47.21
7 4213 Demian Bailey Marys Bicycle Club Corvallis 25.632569722787096 48 22:14.24
8 308 Andrew LaVeine Dialed Cycling Team Newberg 25.170007823577066 51 22:38.76
9 378 Tony Dirks Team Oregon p/b Rodda Paint White Salmon 23.178740516000634 54 24:35.49
10 5658 Colin DuPlantis Bend 22.17194266024069 48 25:42.49
11 5035 Tom Kelly Portland 21.903419914315478 66 26:01.40
12 5040 Larry Hunter Redmond 18.39649275923306 75 30:59.05
DNS 395 Bukie Mabayoje BBC Bike Gallery Continental Hillsboro 56 30:59.05
DNS 536 Rich Wolf Bend 59 30:59.05

Men 1/2

Num Name Team Home Town Mph Age Time
1 186 Daniel Lincoln Hosmer Chiropractic -RPM Mortgage Portland 30.479109991314495 38 18:42.08
2 342 Elias Lawson Flywheel Bicycle Solutions Ashland 29.64041475613346 19 19:13.83
3 160 Andrew Boone Team Oregon p/b Rodda Paint Bend 29.04803947600515 37 19:37.36
4 199 Chris Waggoner Therapeutic Associates Racing p/b Pacific Office North Plains 27.956479250754708 34 20:23.33
5 928 Eric Martin Fulcrum Properties/WebCyclery BEND 27.902422908042805 52 20:25.70
6 834 Sean Hollenbeck Team Oregon p/b Rodda Paint Walla Walla 27.694101449066363 25 20:34.92
7 759 Matt Kline Land Shark grants pass 27.09340075295493 53 21:02.30
DNS 115 Kyle Wuepper Fulcrum Properties/WebCyclery Bend 46 21:02.30

Men 3

Num Name Team Home Town Mph Age Time
1 347 Mckenzie Sampson Mettle Cycling Portland 29.437080205665065 30 19:21.80
2 708 Aris Sophocles Bend 28.98182261871839 38 19:40.05
3 567 Justin Guidroz Bend 28.67491680825561 38 19:52.68
4 379 Aaron McClintock Therapeutic Associates Racing p/b Pacific Office Newberg 28.287373061589225 32 20:09.02
5 372 Chris Sarrett Hutch's Eugene Albany 27.791772818123977 39 20:30.58
6 38 Ben Guernsey Mettle Cycling Portland 27.41988485372888 34 20:47.27
7 3000 Paul Armstrong Bend 27.35059121917504 35 20:50.43
8 603 Scott Scholz Therapeutic Associates Racing p/b Pacific Office Portland 26.744658718764317 35 21:18.76
9 632 Paul Hynes Therapeutic Associates Racing p/b Pacific Office Bend 26.64173856111852 35 21:23.70
10 3026 Jeff Thomas Hutch's Eugene EUGENE 25.375249338252292 49 22:27.77
11 50 Matty Cusack Spokane 25.114373064929655 39 22:41.77
12 604 John Chapman Bend 24.413574381844324 27 23:20.86

Men 4/5

Num Name Team Home Town Mph Age Time
1 4251 Justin Lair Bend 26.745077072036327 35 21:18.74
2 8126 Gavin Bowen Bend 25.97757714451181 16 21:56.52
3 5672 Alex Martin Bend 25.792633153183065 20 22:05.96
4 4205 Peter Jennings TCNF.LEGAL Racing Team Sherwood 25.650641165910955 33 22:13.30
5 5593 Scott Rowles Bend 25.59497070907993 33 22:16.20
6 4112 Peter Madsen Bend 24.95111904771598 35 22:50.68
7 52 Ben Rotert Walla Walla 24.665003001676705 32 23:06.58
8 5451 Garen Marter Portland 24.64154467576884 21 23:07.90
9 4025 ERIK MILLS Bicycleway.com/OPS Eugene 24.348915604104626 43 23:24.58
10 5627 B.J. Boeck Bend 24.092141790046256 42 23:39.55
11 37 shiloh Clark Sisters 23.962332804478123 23 23:47.24
12 34 Ryan Donahue 0.0 23.764192404019 23:59.14
13 4212 Mark Spencer Bend 23.759404682325304 60 23:59.43
14 5101 Connor Donahue Bend 23.1935165813809 31 24:34.55
15 4075 Michael Austin Walla Walla 22.95610140350506 61 24:49.80
16 51 Steve Rapp Walla Walla 20.041959120842087 66 28:26.42
DNS 4019 Chris Lind Team Oregon p/b Rodda Paint Portland 30 28:26.42
DNS 5386 A.R. ElMously Portland 32 28:26.42
DNS 5175 Jens Heycke Ashland 57 28:26.42

Osg Men 65-69

Num Name Team Home Town Mph Age Time
1 36 Glenn Silver Waitsburg 20.995119501583826 66 27:08.95
DNF 35 Don Miller 0.0 27:08.95

Osg Men 70-74

Num Name Home Town Mph Age Time
1 33 Timothy Whalley Reno 20.60911375443069 73 27:39.46
DNS 0 David Brown Bend 74 27:39.46

Osg Men 75-79

Num Name Team Home Town Mph Time
1 39 Joseph Hill Bend 16.085942164917157 35:26.08
DNS 4001 Roger Johnson Team Rose City West Linn 35:26.08

Osg Women 50-54

Num Name Team Home Town Mph Age Time
1 236 Andi Smith Bend 23.85536112174793 51 23:53.64
2 403 Jodie Bolt Lakewood 23.654233155621302 55 24:05.83

Osg Women 60-64

Num Name Home Town Mph Age Time
1 7138 Laura Jackson Roseburg 21.251871917413297 61 26:49.27

Osg Women 65-69

Num Name Home Town Mph Age Time
1 7144 Sandra G Hendy Roseburg 17.20096965298102 66 33:08.26

Women 1/2

Num Name Team Mph Age Time
1 219 Rachel Lee Therapeutic Associates Racing p/b Pacific Office 25.962195254114004 29 21:57.30
2 246 Ryan Levering Sunnyside Sports 25.022498160429777 40 22:46.77

Women 3

Num Name Team Home Town Mph Age Time
1 400 Kristi Cutter Therapeutic Associates Racing p/b Pacific Office Bend 25.14613419620866 42 22:40.05

Women 4/5

Num Name Team Home Town Mph Age Time
1 7205 Tanya Appuhn Portland 22.083892894557263 51 25:48.64
2 7131 Sarah Layton Fast Fun Nice Racing Team p/b Wattie Ink Portland 20.475363645601988 36 27:50.30
3 7225 Micaela Martin Fulcrum Properties/WebCyclery Bend 18.251096612800563 23 31:13.86